| time (UTC) | temp F | wind direction | speed knots | gust knots | rain 1hr in | rain 24hr in | rain mn in | humidity % | barometer mb |
| 20260505183011 | 59 | 187 | 27.8 | 37.4 | 0.01 | 0.02 | 0.02 | 89 | 996.8 |
| 20260505181510 | 58 | 189 | 24.3 | 33.0 | 0.02 | 0.02 | 0.02 | 90 | 997.4 |
| 20260505180010 | 58 | 212 | 30.4 | 42.6 | 0.02 | 0.02 | 0.02 | 90 | 997.0 |
| 20260505174514 | 57 | 214 | 28.7 | 35.6 | 0.02 | 0.02 | 0.02 | 91 | 997.5 |
| 20260505173018 | 56 | 212 | 3.5 | 26.1 | 0.01 | 0.01 | 0.01 | 85 | 997.5 |
| 20260505171505 | 59 | 205 | 38.2 | 47.8 | 0.00 | 0.00 | 0.00 | 79 | 997.7 |
| 20260505170003 | 59 | 202 | 32.2 | 40.0 | 0.00 | 0.00 | 0.00 | 79 | 997.0 |
| 20260505164604 | 58 | 160 | 23.5 | 38.2 | 0.00 | 0.00 | 0.00 | 75 | 997.5 |
| 20260505163101 | 58 | 175 | 25.2 | 32.2 | 0.00 | 0.00 | 0.00 | 69 | 997.9 |
| 20260505161554 | 58 | 157 | 30.4 | 39.1 | 0.00 | 0.00 | 0.00 | 68 | 998.0 |
| 20260505153105 | 52 | 160 | 28.7 | 39.1 | 0.00 | 0.00 | 0.00 | 76 | 998.4 |
| 20260505151554 | 53 | 161 | 23.5 | 33.0 | 0.00 | 0.00 | 0.00 | 73 | 998.4 |
| 20260505124530 | 53 | 175 | 0.0 | 0.0 | 0.00 | 0.00 | 0.00 | 65 | 1000.1 |
| 20260505123025 | 54 | 39 | 0.0 | 0.0 | 0.00 | 0.00 | 0.00 | 68 | 1000.3 |
| 20260505121521 | 54 | 39 | 0.0 | 0.0 | 0.00 | 0.00 | 0.00 | 66 | 1000.6 |
| 20260505120018 | 53 | 27 | 0.0 | 0.0 | 0.00 | 0.00 | 0.00 | 69 | 1000.7 |
| 20260505114527 | 50 | 36 | 0.0 | 0.0 | 0.00 | 0.00 | 0.00 | 71 | 1000.8 |
| 20260505113008 | 47 | 360 | 0.0 | 0.0 | 0.00 | 0.00 | 0.00 | 78 | 1001.2 |
| 20260505111505 | 44 | 6 | 0.0 | 14.8 | 0.00 | 0.00 | 0.00 | 81 | 1001.2 |
| 20260505101502 | 40 | 346 | 4.3 | 11.3 | 0.00 | 0.00 | 0.00 | 86 | 1001.7 |
| 20260505100100 | 39 | 17 | 0.0 | 0.0 | 0.00 | 0.00 | 0.00 | 86 | 1001.7 |
| 20260505094607 | 39 | 356 | 0.0 | 0.0 | 0.00 | 0.00 | 0.00 | 86 | 1001.6 |
| 20260505093057 | 39 | 10 | 7.0 | 16.5 | 0.00 | 0.00 | 0.00 | 85 | 1001.7 |
| 20260505091559 | 40 | 12 | 3.5 | 13.0 | 0.00 | 0.00 | 0.00 | 85 | 1001.8 |
| 20260505090058 | 40 | 3 | 0.0 | 0.0 | 0.00 | 0.00 | 0.00 | 85 | 1001.9 |
| 20260505084551 | 40 | 6 | 0.0 | 11.3 | 0.00 | 0.00 | 0.00 | 85 | 1002.0 |
| 20260505083051 | 40 | 3 | 0.0 | 0.9 | 0.00 | 0.00 | 0.00 | 85 | 1002.1 |
| 20260505081557 | 40 | 11 | 0.0 | 12.2 | 0.00 | 0.00 | 0.00 | 85 | 1002.2 |
| 20260505080048 | 41 | 339 | 0.0 | 0.9 | 0.00 | 0.00 | 0.00 | 84 | 1002.2 |
| 20260505074603 | 41 | 329 | 0.9 | 15.6 | 0.00 | 0.00 | 0.00 | 83 | 1002.2 |
| 20260505073040 | 41 | 332 | 0.9 | 13.0 | 0.00 | 0.00 | 0.00 | 83 | 1002.2 |
| 20260505071537 | 41 | 347 | 0.0 | 8.7 | 0.00 | 0.00 | 0.00 | 83 | 1002.4 |
| 20260505070035 | 42 | 358 | 0.0 | 10.4 | 0.00 | 0.00 | 0.00 | 83 | 1002.6 |
| 20260505064535 | 42 | 353 | 0.0 | 7.8 | 0.00 | 0.00 | 0.00 | 82 | 1002.7 |
| 20260505063038 | 42 | 343 | 0.0 | 2.6 | 0.00 | 0.00 | 0.00 | 81 | 1002.9 |
| 20260505061533 | 43 | 7 | 0.0 | 10.4 | 0.00 | 0.00 | 0.00 | 80 | 1003.1 |
| 20260505060027 | 43 | 5 | 0.0 | 0.0 | 0.00 | 0.00 | 0.00 | 81 | 1003.1 |
| 20260505054528 | 43 | 349 | 0.0 | 0.9 | 0.00 | 0.00 | 0.00 | 80 | 1003.4 |
| 20260505053023 | 43 | 355 | 0.0 | 9.6 | 0.00 | 0.00 | 0.00 | 81 | 1003.7 |
| 20260505051522 | 43 | 336 | 0.0 | 0.0 | 0.00 | 0.00 | 0.00 | 80 | 1003.8 |
| 20260505041514 | 44 | 330 | 0.0 | 0.0 | 0.00 | 0.00 | 0.00 | 79 | 1004.0 |
| 20260505040012 | 45 | 3 | 0.0 | 0.0 | 0.00 | 0.00 | 0.00 | 77 | 1003.9 |
| 20260505034514 | 45 | 4 | 0.0 | 0.0 | 0.00 | 0.00 | 0.00 | 77 | 1003.8 |
| 20260505033023 | 45 | 24 | 0.0 | 0.0 | 0.00 | 0.00 | 0.00 | 77 | 1003.9 |
| 20260505031510 | 46 | 24 | 0.0 | 0.0 | 0.00 | 0.00 | 0.00 | 77 | 1003.9 |
| 20260505030010 | 47 | 60 | 0.0 | 0.0 | 0.00 | 0.00 | 0.00 | 75 | 1004.1 |
| 20260505024525 | 48 | 156 | 0.0 | 13.9 | 0.00 | 0.00 | 0.00 | 78 | 1004.0 |
| 20260505023008 | 47 | 154 | 2.6 | 14.8 | 0.00 | 0.00 | 0.00 | 79 | 1004.1 |
| 20260505021525 | 46 | 20 | 0.0 | 0.0 | 0.00 | 0.00 | 0.00 | 76 | 1004.1 |
| 20260505020007 | 47 | 316 | 0.0 | 0.0 | 0.00 | 0.00 | 0.00 | 76 | 1004.1 |
| 20260505014506 | 48 | 214 | 0.0 | 1.7 | 0.00 | 0.00 | 0.00 | 74 | 1004.1 |
| 20260505013006 | 49 | 98 | 0.0 | 0.0 | 0.00 | 0.00 | 0.00 | 72 | 1004.0 |
| 20260505011507 | 49 | 178 | 0.0 | 14.8 | 0.00 | 0.00 | 0.00 | 70 | 1004.1 |
| 20260505010006 | 49 | 163 | 0.0 | 0.0 | 0.00 | 0.00 | 0.00 | 73 | 1004.0 |
| 20260505004513 | 49 | 150 | 0.0 | 0.0 | 0.00 | 0.00 | 0.00 | 72 | 1003.8 |
| 20260505003004 | 49 | 270 | 0.0 | 0.0 | 0.00 | 0.00 | 0.00 | 74 | 1003.6 |
| 20260505001504 | 49 | 150 | 0.0 | 10.4 | 0.00 | 0.00 | 0.00 | 74 | 1003.1 |
| 20260505000004 | 51 | 102 | 0.0 | 5.2 | 0.00 | 0.00 | 0.00 | 70 | 1002.8 |
| 20260504234503 | 51 | 273 | 0.0 | 0.0 | 0.00 | 0.00 | 0.00 | 68 | 1002.4 |
| 20260504233002 | 51 | 233 | 7.0 | 19.1 | 0.00 | 0.00 | 0.00 | 69 | 1002.2 |
| 20260504231502 | 50 | 226 | 7.8 | 23.5 | 0.00 | 0.00 | 0.00 | 72 | 1001.9 |
| 20260504230002 | 50 | 246 | 13.0 | 34.8 | 0.00 | 0.00 | 0.00 | 76 | 1001.7 |
| 20260504224558 | 49 | 218 | 25.2 | 34.8 | 0.00 | 0.00 | 0.00 | 77 | 1001.5 |
| 20260504223102 | 49 | 215 | 23.5 | 33.0 | 0.00 | 0.00 | 0.00 | 77 | 1001.2 |
| 20260504221605 | 49 | 201 | 22.6 | 39.1 | 0.00 | 0.00 | 0.00 | 76 | 1001.2 |
| 20260504220122 | 51 | 223 | 21.7 | 33.9 | 0.00 | 0.00 | 0.00 | 74 | 1001.1 |
| 20260504214553 | 51 | 232 | 17.4 | 30.4 | 0.00 | 0.00 | 0.00 | 72 | 1000.9 |
| 20260504213103 | 50 | 211 | 29.5 | 44.3 | 0.00 | 0.00 | 0.00 | 75 | 1000.7 |
| 20260504211548 | 49 | 229 | 28.7 | 48.7 | 0.00 | 0.00 | 0.00 | 80 | 1000.8 |
| 20260504210048 | 49 | 227 | 32.2 | 49.5 | 0.00 | 0.00 | 0.00 | 80 | 1000.5 |
| 20260504204600 | 49 | 216 | 35.6 | 52.1 | 0.00 | 0.00 | 0.00 | 81 | 1000.4 |
| 20260504203046 | 49 | 210 | 43.4 | 53.9 | 0.00 | 0.00 | 0.00 | 81 | 1000.5 |
| 20260504201544 | 49 | 201 | 44.3 | 53.9 | 0.00 | 0.00 | 0.00 | 80 | 1000.5 |
| 20260504200046 | 49 | 208 | 40.8 | 52.1 | 0.00 | 0.00 | 0.00 | 82 | 1000.5 |
| 20260504194544 | 49 | 214 | 41.7 | 53.9 | 0.00 | 0.00 | 0.00 | 84 | 1000.5 |
| 20260504193039 | 48 | 225 | 51.3 | 60.8 | 0.00 | 0.00 | 0.00 | 86 | 1000.7 |
| 20260504191541 | 48 | 212 | 46.9 | 56.5 | 0.00 | 0.00 | 0.00 | 85 | 1000.8 |
| 20260504190039 | 49 | 206 | 46.1 | 57.4 | 0.00 | 0.00 | 0.00 | 82 | 1000.9 |
| 20260504184537 | 49 | 208 | 45.2 | 57.4 | 0.00 | 0.00 | 0.00 | 81 | 1000.8 |